Regional Weather Roundup
Issued by NWS

Home | Current Version | Previous Version | Text Only | Print | Product List | Glossary On
Versions: 1 2 3 4 5 6 7 8 9 10 11 12 13 14 15 16 17 18 19 20 21 22 23 24 25 26 27 28 29 30 31 32 33 34 35 36 37 38 39 40 41 42 43 44 45 46 47 48 49 50
000
ASUS43 KDMX 181307
RWRIA

WEATHER ROUNDUP FOR IOWA
NATIONAL WEATHER SERVICE DES MOINES IA
700 AM CST THU DEC 18 2014

NOTE: "FAIR" INDICATES FEW OR NO CLOUDS BELOW 12,000 FEET WITH NO
SIGNIFICANT WEATHER AND/OR OBSTRUCTIONS TO VISIBILITY.

* - THESE STATIONS ARE NOT NWS STATIONS...THUS NOT UNDER NWS
QUALITY CONTROL.  THEY ALSO DO NOT REPORT WEATHER SUCH
AS PRECIPITATION OR FOG.

IAZ001>003-012>014-020>022-031>034-043>046-181400-
   NORTHWEST IOWA

CITY           SKY/WX    TMP DP  RH WIND       PRES   REMARKS
CARROLL *      CLOUDY    21  19  93 SE6       30.26R WCI  14
CHEROKEE *     CLOUDY    21  19  93 E6        30.25S WCI  14
DENISON *      CLOUDY    23  21  93 E8        30.22S WCI  14
LE MARS *      CLOUDY    23  21  93 VRB5      30.24S WCI  17
ORANGE CITY *  CLOUDY    21  18  86 SE7       30.23R WCI  13
SHELDON *      CLOUDY    18  18 100 SE8       30.23R WCI   7
SIOUX CITY     CLOUDY    26  21  81 E6        30.24R WCI  19
SPENCER        CLOUDY    18  14  84 SE8       30.26R WCI   8
STORM LAKE *   CLOUDY    19  18  93 E7        30.24S WCI  10
$$

IAZ055>058-069>071-079>083-090>094-181400-
   SOUTHWEST IOWA

CITY           SKY/WX    TMP DP  RH WIND       PRES   REMARKS
ATLANTIC *     MIX PCPN  25  19  80 E6        30.24S WCI  18
AUDUBON *      PTCLDY    23  18  80 SE6       30.24S WCI  16
CLARINDA *     LGT SNOW  27  25  93 E3        30.26S
COUNCIL BLFS * LGT SNOW  27  23  86 SE8       30.22R WCI  18
CRESTON *      MIX PCPN  23  21  93 E7        30.24S WCI  15
HARLAN  *      CLOUDY    25  23  93 SE7       30.27S WCI  17
LAMONI         LGT SNOW  24  22  91 E5        30.24S FOG     WCI  18
RED OAK *      MIX PCPN  27  23  86 E6        30.25R WCI  20
SHENANDOAH *   LGT SNOW  27  27 100 E7        30.25S WCI  19
$$

IAZ047>049-059>061-072>074-084-181400-
   CENTRAL IOWA

CITY           SKY/WX    TMP DP  RH WIND       PRES   REMARKS
AMES           CLOUDY    20  16  84 E7        30.28S WCI  11
ANKENY *       CLOUDY    21  18  86 E5        30.29R WCI  15
CHARITON *     CLOUDY    23  19  86 E5        30.27R WCI  17
DES MOINES     CLOUDY    23  16  74 SE5       30.29R WCI  17
GRINNELL*      CLOUDY    19  18  93 NE5       30.29R WCI  13
KNOXVILLE *    CLOUDY    21  16  79 SE5       30.27R WCI  15
MARSHALLTOWN   CLOUDY    16  13  88 CALM      30.29R
PELLA *        CLOUDY    21  18  86 CALM      30.30S
PERRY *        MOCLDY    23  19  86 E6        30.28R WCI  16
$$

IAZ004>006-015-016-023>025-035-036-181400-
   NORTH CENTRAL IOWA

CITY           SKY/WX    TMP DP  RH WIND       PRES   REMARKS
ALGONA *       CLOUDY    16  14  93 CALM      30.28R
CLARION *      CLOUDY    16  16 100 SE6       30.28S WCI   7
ESTHERVILLE    CLOUDY    15  13  91 SE6       30.26R WCI   6
FORT DODGE *   CLOUDY    19  14  79 E5        30.28S WCI  13
MASON CITY     CLOUDY    18  14  84 CALM      30.29R
FOREST CITY *  CLOUDY    18  14  86 CALM      30.27R
IOWA FALLS *   MOCLDY    18  14  86 CALM      30.30R
$$

IAZ007>011-017>019-026>030-037>042-050>054-066-181400-
   NORTHEAST IOWA

CITY           SKY/WX    TMP DP  RH WIND       PRES   REMARKS
CEDAR RAPIDS   MOCLDY    13  10  88 CALM      30.29R
CHARLES CITY * CLOUDY    16  14  93 CALM      30.29R
CLINTON *      MOCLDY    14  10  85 CALM      30.33R
DECORAH *      MOCLDY    14  10  85 CALM      30.27R
DUBUQUE        CLEAR     15  12  88 N3        30.27R
MONTICELLO *   CLEAR     14  12  92 CALM      30.30R
OELWEIN *      CLEAR     14  10  85 CALM      30.29R
WATERLOO       PTCLDY    11   9  92 CALM      30.31R
$$

IAZ064-065-067-068-078-181400-
   EAST CENTRAL IOWA

CITY           SKY/WX    TMP DP  RH WIND       PRES   REMARKS
DAVENPORT      MOCLDY    17  13  84 CALM      30.31R
IOWA CITY      MOCLDY    19  16  88 CALM      30.32S
MT. PLEASANT * CLOUDY    23  19  86 N3        30.30S
MUSCATINE *    CLOUDY    21  18  86 CALM      30.33R
QUAD CITIES    MOCLDY    21  17  84 CALM      30.31R
$$

IAZ062-063-075>077-085>089-095>099-181400-
   SOUTHEAST IOWA

CITY           SKY/WX    TMP DP  RH WIND       PRES   REMARKS
BURLINGTON     FLURRIES  24  19  81 CALM      30.30R
FAIRFIELD *    CLOUDY    23  18  80 NE5       30.30S WCI  17
FORT MADISON * CLOUDY    25  21  86 CALM      30.30S
KEOKUK *       CLOUDY    25  21  86 CALM      30.29S
OSKALOOSA *    CLOUDY    21  18  86 NE5       30.29S WCI  15
CENTERVILLE *  FLURRIES  23  23 100 E5        30.28S WCI  17
OTTUMWA        CLOUDY    22  17  81 E5        30.28S WCI  16
WASHINGTON *   CLOUDY    21  21 100 CALM      30.30S
$$

ABBREVIATIONS USED IN REMARKS
   TC - TEMPERATURES IN CELSIUS
  WCI - WIND CHILL INDEX
   HX - HEAT INDEX
  VSB - VISIBILITY
$$



USA.gov is the U.S. government's official web portal to all federal, state and local government web resources and services.